Time,TemperatureF,DewpointF,PressureIn,WindDirection,WindDirectionDegrees,WindSpeedMPH,WindSpeedGustMPH,Humidity,HourlyPrecipIn,Conditions,Clouds,dailyrainin,SoftwareType,DateUTC
2013-02-18 00:00:00,14.6,6.9,30.26,South,181,1.0,2.0,71,0.00,,,0.00,Wunderground v.1.15,2013-02-18 05:00:00,
2013-02-18 00:01:00,14.6,6.9,30.25,South,182,1.0,2.0,71,0.00,,,0.00,Wunderground v.1.15,2013-02-18 05:01:00,
2013-02-18 00:02:00,14.7,7.0,30.26,South,180,2.0,3.0,71,0.00,,,0.00,Wunderground v.1.15,2013-02-18 05:02:00,
2013-02-18 00:08:00,15.1,7.4,30.26,South,182,2.0,3.0,71,0.00,,,0.00,Wunderground v.1.15,2013-02-18 05:08:00,
2013-02-18 00:14:00,15.5,7.8,30.26,South,176,2.0,4.0,71,0.00,,,0.00,Wunderground v.1.15,2013-02-18 05:14:00,
2013-02-18 00:19:00,15.8,7.7,30.26,South,184,3.0,4.0,70,0.00,,,0.00,Wunderground v.1.15,2013-02-18 05:19:00,
2013-02-18 00:24:00,16.1,8.0,30.26,SSW,198,3.0,4.0,70,0.00,,,0.00,Wunderground v.1.15,2013-02-18 05:24:00,
2013-02-18 00:30:00,16.3,8.2,30.26,SSW,200,2.0,3.0,70,0.00,,,0.00,Wunderground v.1.15,2013-02-18 05:30:00,
2013-02-18 00:35:00,16.4,8.3,30.26,South,184,2.0,5.0,70,0.00,,,0.00,Wunderground v.1.15,2013-02-18 05:35:00,
2013-02-18 00:41:00,16.6,8.2,30.26,South,189,3.0,3.0,69,0.00,,,0.00,Wunderground v.1.15,2013-02-18 05:41:00,
2013-02-18 00:46:00,16.8,8.4,30.26,SSW,201,3.0,6.0,69,0.00,,,0.00,Wunderground v.1.15,2013-02-18 05:46:00,
2013-02-18 00:52:00,16.9,8.5,30.26,South,176,3.0,4.0,69,0.00,,,0.00,Wunderground v.1.15,2013-02-18 05:52:00,
2013-02-18 00:58:00,17.0,8.3,30.26,SSW,198,3.0,6.0,68,0.00,,,0.00,Wunderground v.1.15,2013-02-18 05:58:00,
2013-02-18 01:03:00,17.1,8.3,30.26,SSW,205,3.0,3.0,68,0.00,,,0.00,Wunderground v.1.15,2013-02-18 06:03:00,
2013-02-18 01:08:00,17.1,8.3,30.27,South,186,3.0,9.0,68,0.00,,,0.00,Wunderground v.1.15,2013-02-18 06:08:00,
2013-02-18 01:13:00,17.1,8.3,30.26,South,175,2.0,3.0,68,0.00,,,0.00,Wunderground v.1.15,2013-02-18 06:13:00,
2013-02-18 01:19:00,17.1,8.3,30.27,South,184,2.0,2.0,68,0.00,,,0.00,Wunderground v.1.15,2013-02-18 06:19:00,
2013-02-18 01:25:00,17.1,8.3,30.26,South,191,2.0,4.0,68,0.00,,,0.00,Wunderground v.1.15,2013-02-18 06:25:00,
2013-02-18 01:30:00,17.1,8.7,30.26,SSW,198,2.0,2.0,69,0.00,,,0.00,Wunderground v.1.15,2013-02-18 06:30:00,
2013-02-18 01:36:00,17.1,8.7,30.26,SSW,198,2.0,5.0,69,0.00,,,0.00,Wunderground v.1.15,2013-02-18 06:36:00,
2013-02-18 01:41:00,17.2,8.8,30.26,SSW,210,3.0,9.0,69,0.00,,,0.00,Wunderground v.1.15,2013-02-18 06:41:00,
2013-02-18 01:46:00,17.3,8.9,30.26,South,189,3.0,9.0,69,0.00,,,0.00,Wunderground v.1.15,2013-02-18 06:46:00,
2013-02-18 01:52:00,17.3,8.5,30.26,SSW,199,3.0,6.0,68,0.00,,,0.00,Wunderground v.1.15,2013-02-18 06:52:00,
2013-02-18 01:58:00,17.4,9.0,30.25,South,190,3.0,6.0,69,0.00,,,0.00,Wunderground v.1.15,2013-02-18 06:58:00,
2013-02-18 02:04:00,17.5,8.7,30.26,South,186,3.0,6.0,68,0.00,,,0.00,Wunderground v.1.15,2013-02-18 07:04:00,
2013-02-18 02:10:00,17.6,8.8,30.26,South,185,4.0,5.0,68,0.00,,,0.00,Wunderground v.1.15,2013-02-18 07:10:00,
2013-02-18 02:15:00,17.6,9.2,30.26,South,183,4.0,9.0,69,0.00,,,0.00,Wunderground v.1.15,2013-02-18 07:15:00,
2013-02-18 02:20:00,17.6,9.2,30.26,SSW,196,3.0,4.0,69,0.00,,,0.00,Wunderground v.1.15,2013-02-18 07:20:00,
2013-02-18 02:25:00,17.6,9.2,30.26,SSW,199,3.0,5.0,69,0.00,,,0.00,Wunderground v.1.15,2013-02-18 07:25:00,
2013-02-18 02:31:00,17.6,9.2,30.26,South,188,3.0,4.0,69,0.00,,,0.00,Wunderground v.1.15,2013-02-18 07:31:00,
2013-02-18 02:36:00,17.6,9.2,30.26,SSW,198,3.0,4.0,69,0.00,,,0.00,Wunderground v.1.15,2013-02-18 07:36:00,
2013-02-18 02:41:00,17.6,9.5,30.26,SSW,209,3.0,3.0,70,0.00,,,0.00,Wunderground v.1.15,2013-02-18 07:41:00,
2013-02-18 02:47:00,17.6,9.5,30.25,SSW,205,3.0,6.0,70,0.00,,,0.00,Wunderground v.1.15,2013-02-18 07:47:00,
2013-02-18 02:53:00,17.6,9.5,30.25,SSW,202,3.0,7.0,70,0.00,,,0.00,Wunderground v.1.15,2013-02-18 07:53:00,
2013-02-18 02:58:00,17.7,9.6,30.25,South,182,4.0,7.0,70,0.00,,,0.00,Wunderground v.1.15,2013-02-18 07:58:00,
2013-02-18 03:03:00,17.8,9.7,30.24,South,182,4.0,10.0,70,0.00,,,0.00,Wunderground v.1.15,2013-02-18 08:03:00,
2013-02-18 03:09:00,17.9,9.8,30.24,SSW,207,4.0,4.0,70,0.00,,,0.00,Wunderground v.1.15,2013-02-18 08:09:00,
2013-02-18 03:14:00,18.0,9.9,30.24,SSW,205,4.0,7.0,70,0.00,,,0.00,Wunderground v.1.15,2013-02-18 08:14:00,
2013-02-18 03:20:00,18.0,9.9,30.24,SSW,202,3.0,4.0,70,0.00,,,0.00,Wunderground v.1.15,2013-02-18 08:20:00,
2013-02-18 03:25:00,17.9,9.8,30.24,SW,236,2.0,4.0,70,0.00,,,0.00,Wunderground v.1.15,2013-02-18 08:25:00,
2013-02-18 03:31:00,17.9,9.8,30.24,South,191,2.0,7.0,70,0.00,,,0.00,Wunderground v.1.15,2013-02-18 08:31:00,
2013-02-18 03:36:00,17.9,10.1,30.24,South,184,3.0,7.0,71,0.00,,,0.00,Wunderground v.1.15,2013-02-18 08:36:00,
2013-02-18 03:41:00,18.0,10.2,30.24,SSW,198,4.0,4.0,71,0.00,,,0.00,Wunderground v.1.15,2013-02-18 08:41:00,
2013-02-18 03:46:00,18.1,10.3,30.24,South,190,3.0,4.0,71,0.00,,,0.00,Wunderground v.1.15,2013-02-18 08:46:00,
2013-02-18 03:52:00,18.2,10.1,30.23,South,178,3.0,3.0,70,0.00,,,0.00,Wunderground v.1.15,2013-02-18 08:52:00,
2013-02-18 03:58:00,18.3,10.1,30.23,South,185,3.0,6.0,70,0.00,,,0.00,Wunderground v.1.15,2013-02-18 08:58:00,
2013-02-18 04:03:00,18.4,10.2,30.22,South,178,4.0,9.0,70,0.00,,,0.00,Wunderground v.1.15,2013-02-18 09:03:00,
2013-02-18 04:09:00,18.5,10.3,30.22,South,179,4.0,4.0,70,0.00,,,0.00,Wunderground v.1.15,2013-02-18 09:09:00,
2013-02-18 04:14:00,18.6,10.4,30.22,SSW,192,4.0,5.0,70,0.00,,,0.00,Wunderground v.1.15,2013-02-18 09:14:00,
2013-02-18 04:20:00,18.7,10.5,30.22,SSW,194,4.0,4.0,70,0.00,,,0.00,Wunderground v.1.15,2013-02-18 09:20:00,
2013-02-18 04:25:00,18.7,10.9,30.22,South,178,3.0,5.0,71,0.00,,,0.00,Wunderground v.1.15,2013-02-18 09:25:00,
2013-02-18 04:31:00,18.8,10.9,30.22,South,181,3.0,5.0,71,0.00,,,0.00,Wunderground v.1.15,2013-02-18 09:31:00,
2013-02-18 04:36:00,18.8,10.9,30.21,SSW,205,3.0,6.0,71,0.00,,,0.00,Wunderground v.1.15,2013-02-18 09:36:00,
2013-02-18 04:42:00,18.9,11.0,30.22,South,186,4.0,6.0,71,0.00,,,0.00,Wunderground v.1.15,2013-02-18 09:42:00,
2013-02-18 04:48:00,18.9,11.0,30.21,South,189,3.0,6.0,71,0.00,,,0.00,Wunderground v.1.15,2013-02-18 09:48:00,
2013-02-18 04:53:00,19.0,11.1,30.21,SSW,199,3.0,9.0,71,0.00,,,0.00,Wunderground v.1.15,2013-02-18 09:53:00,
2013-02-18 04:59:00,19.1,11.2,30.21,South,180,4.0,6.0,71,0.00,,,0.00,Wunderground v.1.15,2013-02-18 09:59:00,
2013-02-18 05:05:00,19.2,11.6,30.20,South,177,3.0,7.0,72,0.00,,,0.00,Wunderground v.1.15,2013-02-18 10:05:00,
2013-02-18 05:10:00,19.3,11.7,30.20,SSW,200,3.0,4.0,72,0.00,,,0.00,Wunderground v.1.15,2013-02-18 10:10:00,
2013-02-18 05:15:00,19.4,11.8,30.20,SSW,192,3.0,5.0,72,0.00,,,0.00,Wunderground v.1.15,2013-02-18 10:15:00,
2013-02-18 05:21:00,19.5,11.9,30.20,SSW,209,3.0,6.0,72,0.00,,,0.00,Wunderground v.1.15,2013-02-18 10:21:00,
2013-02-18 05:26:00,19.6,12.0,30.20,SSW,192,4.0,6.0,72,0.00,,,0.00,Wunderground v.1.15,2013-02-18 10:26:00,
2013-02-18 05:32:00,19.7,11.8,30.20,SSW,193,4.0,8.0,71,0.00,,,0.00,Wunderground v.1.15,2013-02-18 10:32:00,
2013-02-18 05:37:00,19.7,12.1,30.19,South,173,4.0,8.0,72,0.00,,,0.00,Wunderground v.1.15,2013-02-18 10:37:00,
2013-02-18 05:42:00,19.7,11.8,30.19,South,173,4.0,9.0,71,0.00,,,0.00,Wunderground v.1.15,2013-02-18 10:42:00,
2013-02-18 05:48:00,19.7,11.8,30.18,SSW,201,5.0,9.0,71,0.00,,,0.00,Wunderground v.1.15,2013-02-18 10:48:00,
2013-02-18 05:53:00,19.7,11.8,30.18,ESE,115,5.0,10.0,71,0.00,,,0.00,Wunderground v.1.15,2013-02-18 10:53:00,
2013-02-18 05:59:00,19.8,11.9,30.17,SSW,193,5.0,5.0,71,0.00,,,0.00,Wunderground v.1.15,2013-02-18 10:59:00,
2013-02-18 06:04:00,19.9,12.0,30.17,SSW,200,6.0,10.0,71,0.00,,,0.00,Wunderground v.1.15,2013-02-18 11:04:00,
2013-02-18 06:10:00,19.9,12.3,30.18,SSE,161,6.0,6.0,72,0.00,,,0.00,Wunderground v.1.15,2013-02-18 11:10:00,
2013-02-18 06:15:00,19.9,12.3,30.17,South,174,5.0,7.0,72,0.00,,,0.00,Wunderground v.1.15,2013-02-18 11:15:00,
2013-02-18 06:21:00,19.9,12.3,30.17,SW,217,5.0,5.0,72,0.00,,,0.00,Wunderground v.1.15,2013-02-18 11:21:00,
2013-02-18 06:26:00,19.8,12.2,30.17,South,180,5.0,9.0,72,0.00,,,0.00,Wunderground v.1.15,2013-02-18 11:26:00,
2013-02-18 06:31:00,19.9,12.3,30.16,SSW,199,6.0,7.0,72,0.00,,,0.00,Wunderground v.1.15,2013-02-18 11:31:00,
2013-02-18 06:36:00,20.0,12.4,30.16,South,186,6.0,9.0,72,0.00,,,0.00,Wunderground v.1.15,2013-02-18 11:36:00,
2013-02-18 06:42:00,20.2,12.6,30.15,SSW,207,6.0,10.0,72,0.00,,,0.00,Wunderground v.1.15,2013-02-18 11:42:00,
2013-02-18 06:48:00,20.4,12.8,30.15,SSE,168,5.0,11.0,72,0.00,,,0.00,Wunderground v.1.15,2013-02-18 11:48:00,
2013-02-18 06:53:00,20.5,12.9,30.14,South,184,6.0,9.0,72,0.00,,,0.00,Wunderground v.1.15,2013-02-18 11:53:00,
2013-02-18 06:59:00,20.7,12.8,30.14,SSW,202,7.0,7.0,71,0.00,,,0.00,Wunderground v.1.15,2013-02-18 11:59:00,
2013-02-18 07:04:00,20.8,12.9,30.14,SSW,213,6.0,10.0,71,0.00,,,0.00,Wunderground v.1.15,2013-02-18 12:04:00,
2013-02-18 07:10:00,20.9,13.0,30.14,South,171,6.0,6.0,71,0.00,,,0.00,Wunderground v.1.15,2013-02-18 12:10:00,
2013-02-18 07:16:00,21.1,12.8,30.13,SSW,192,7.0,10.0,70,0.00,,,0.00,Wunderground v.1.15,2013-02-18 12:16:00,
2013-02-18 07:21:00,21.2,12.9,30.13,SSW,196,7.0,12.0,70,0.00,,,0.00,Wunderground v.1.15,2013-02-18 12:21:00,
2013-02-18 07:27:00,21.3,13.0,30.13,SSW,200,7.0,13.0,70,0.00,,,0.00,Wunderground v.1.15,2013-02-18 12:27:00,
2013-02-18 07:32:00,21.4,13.1,30.13,South,179,8.0,14.0,70,0.00,,,0.00,Wunderground v.1.15,2013-02-18 12:32:00,
2013-02-18 07:38:00,21.4,13.1,30.13,South,191,9.0,14.0,70,0.00,,,0.00,Wunderground v.1.15,2013-02-18 12:38:00,
2013-02-18 07:43:00,21.5,13.2,30.13,SSW,196,8.0,8.0,70,0.00,,,0.00,Wunderground v.1.15,2013-02-18 12:43:00,
2013-02-18 07:49:00,21.5,13.2,30.13,SW,226,9.0,11.0,70,0.00,,,0.00,Wunderground v.1.15,2013-02-18 12:49:00,
2013-02-18 07:54:00,21.5,13.2,30.13,SSW,213,9.0,13.0,70,0.00,,,0.00,Wunderground v.1.15,2013-02-18 12:54:00,
2013-02-18 07:59:00,21.5,13.2,30.12,SE,144,7.0,7.0,70,0.00,,,0.00,Wunderground v.1.15,2013-02-18 12:59:00,
2013-02-18 08:05:00,21.6,13.3,30.11,SSE,161,7.0,11.0,70,0.00,,,0.00,Wunderground v.1.15,2013-02-18 13:05:00,
2013-02-18 08:10:00,21.7,13.4,30.11,SSE,157,7.0,8.0,70,0.00,,,0.00,Wunderground v.1.15,2013-02-18 13:10:00,
2013-02-18 08:16:00,21.8,13.5,30.11,SSW,212,7.0,10.0,70,0.00,,,0.00,Wunderground v.1.15,2013-02-18 13:16:00,
2013-02-18 08:21:00,21.8,13.5,30.11,South,177,7.0,13.0,70,0.00,,,0.00,Wunderground v.1.15,2013-02-18 13:21:00,
2013-02-18 08:27:00,21.9,13.6,30.11,SW,221,7.0,13.0,70,0.00,,,0.00,Wunderground v.1.15,2013-02-18 13:27:00,
2013-02-18 08:32:00,22.1,13.8,30.11,SSW,194,8.0,13.0,70,0.00,,,0.00,Wunderground v.1.15,2013-02-18 13:32:00,
2013-02-18 08:38:00,22.4,14.1,30.10,SSW,203,9.0,13.0,70,0.00,,,0.00,Wunderground v.1.15,2013-02-18 13:38:00,
2013-02-18 08:43:00,22.6,14.3,30.09,South,186,8.0,12.0,70,0.00,,,0.00,Wunderground v.1.15,2013-02-18 13:43:00,
2013-02-18 08:49:00,22.9,14.2,30.09,South,176,7.0,14.0,69,0.00,,,0.00,Wunderground v.1.15,2013-02-18 13:49:00,
2013-02-18 08:54:00,23.1,14.4,30.09,SSW,205,8.0,14.0,69,0.00,,,0.00,Wunderground v.1.15,2013-02-18 13:54:00,
2013-02-18 09:00:00,23.4,14.7,30.09,SSW,196,9.0,14.0,69,0.00,,,0.00,Wunderground v.1.15,2013-02-18 14:00:00,
2013-02-18 09:05:00,23.8,14.8,30.09,South,182,9.0,19.0,68,0.00,,,0.00,Wunderground v.1.15,2013-02-18 14:05:00,
2013-02-18 09:11:00,24.1,15.1,30.09,SSW,198,11.0,15.0,68,0.00,,,0.00,Wunderground v.1.15,2013-02-18 14:11:00,
2013-02-18 09:16:00,24.4,15.3,30.08,South,190,11.0,19.0,68,0.00,,,0.00,Wunderground v.1.15,2013-02-18 14:16:00,
2013-02-18 09:22:00,24.7,15.3,30.07,South,186,11.0,12.0,67,0.00,,,0.00,Wunderground v.1.15,2013-02-18 14:22:00,
2013-02-18 09:28:00,25.1,15.7,30.07,South,183,10.0,15.0,67,0.00,,,0.00,Wunderground v.1.15,2013-02-18 14:28:00,
2013-02-18 09:34:00,25.6,15.8,30.06,SSW,203,10.0,12.0,66,0.00,,,0.00,Wunderground v.1.15,2013-02-18 14:34:00,
2013-02-18 09:40:00,26.2,16.0,30.06,South,180,9.0,12.0,65,0.00,,,0.00,Wunderground v.1.15,2013-02-18 14:40:00,
2013-02-18 09:45:00,26.6,16.4,30.05,South,169,10.0,12.0,65,0.00,,,0.00,Wunderground v.1.15,2013-02-18 14:45:00,
2013-02-18 09:50:00,27.1,16.9,30.05,SE,146,10.0,10.0,65,0.00,,,0.00,Wunderground v.1.15,2013-02-18 14:50:00,
2013-02-18 09:55:00,27.6,17.4,30.05,SSW,196,8.0,12.0,65,0.00,,,0.00,Wunderground v.1.15,2013-02-18 14:55:00,
2013-02-18 10:01:00,28.1,17.5,30.05,South,184,8.0,15.0,64,0.00,,,0.00,Wunderground v.1.15,2013-02-18 15:01:00,
2013-02-18 10:06:00,28.6,18.0,30.05,SW,214,8.0,15.0,64,0.00,,,0.00,Wunderground v.1.15,2013-02-18 15:06:00,
2013-02-18 10:11:00,28.9,17.9,30.05,South,186,8.0,13.0,63,0.00,,,0.00,Wunderground v.1.15,2013-02-18 15:11:00,
2013-02-18 10:16:00,29.3,18.3,30.04,SSW,202,9.0,13.0,63,0.00,,,0.00,Wunderground v.1.15,2013-02-18 15:16:00,
2013-02-18 10:22:00,29.7,17.9,30.04,SSW,200,10.0,19.0,61,0.00,,,0.00,Wunderground v.1.15,2013-02-18 15:22:00,
2013-02-18 10:28:00,29.9,18.5,30.03,South,177,12.0,19.0,62,0.00,,,0.00,Wunderground v.1.15,2013-02-18 15:28:00,
2013-02-18 10:33:00,30.3,18.8,30.03,SSW,213,11.0,15.0,62,0.00,,,0.00,Wunderground v.1.15,2013-02-18 15:33:00,
2013-02-18 10:39:00,30.6,18.3,30.02,South,173,10.0,14.0,60,0.00,,,0.00,Wunderground v.1.15,2013-02-18 15:39:00,
2013-02-18 10:44:00,30.7,18.8,30.02,South,173,11.0,17.0,61,0.00,,,0.00,Wunderground v.1.15,2013-02-18 15:44:00,
2013-02-18 10:50:00,30.7,18.8,30.02,South,186,10.0,13.0,61,0.00,,,0.00,Wunderground v.1.15,2013-02-18 15:50:00,
2013-02-18 10:55:00,30.8,18.9,30.01,SSE,167,10.0,13.0,61,0.00,,,0.00,Wunderground v.1.15,2013-02-18 15:55:00,
2013-02-18 11:00:00,31.0,19.1,30.01,South,180,10.0,10.0,61,0.00,,,0.00,Wunderground v.1.15,2013-02-18 16:00:00,
2013-02-18 11:05:00,31.3,19.4,30.01,SSW,192,9.0,11.0,61,0.00,,,0.00,Wunderground v.1.15,2013-02-18 16:05:00,
2013-02-18 11:12:00,31.5,19.6,30.01,SSW,205,10.0,13.0,61,0.00,,,0.00,Wunderground v.1.15,2013-02-18 16:12:00,
2013-02-18 11:17:00,31.8,19.5,30.01,SSW,194,10.0,15.0,60,0.00,,,0.00,Wunderground v.1.15,2013-02-18 16:17:00,
2013-02-18 11:23:00,31.7,19.8,30.00,SSW,211,11.0,13.0,61,0.00,,,0.00,Wunderground v.1.15,2013-02-18 16:23:00,
2013-02-18 11:28:00,31.9,20.0,30.00,SSW,210,12.0,12.0,61,0.00,,,0.00,Wunderground v.1.15,2013-02-18 16:28:00,
2013-02-18 11:34:00,32.0,19.7,30.00,SSW,207,11.0,17.0,60,0.00,,,0.00,Wunderground v.1.15,2013-02-18 16:34:00,
2013-02-18 11:39:00,31.9,20.0,29.99,South,182,12.0,12.0,61,0.00,,,0.00,Wunderground v.1.15,2013-02-18 16:39:00,
2013-02-18 11:44:00,32.1,20.2,29.99,SSW,196,10.0,12.0,61,0.00,,,0.00,Wunderground v.1.15,2013-02-18 16:44:00,
2013-02-18 11:50:00,32.3,20.3,29.99,South,184,9.0,15.0,61,0.00,,,0.00,Wunderground v.1.15,2013-02-18 16:50:00,
2013-02-18 11:55:00,32.6,20.6,29.98,SE,145,9.0,15.0,61,0.00,,,0.00,Wunderground v.1.15,2013-02-18 16:55:00,
2013-02-18 12:01:00,33.0,20.6,29.98,SSW,207,10.0,17.0,60,0.00,,,0.00,Wunderground v.1.15,2013-02-18 17:01:00,
2013-02-18 12:06:00,33.3,21.3,29.98,South,188,11.0,17.0,61,0.00,,,0.00,Wunderground v.1.15,2013-02-18 17:06:00,
2013-02-18 12:12:00,33.7,21.3,29.98,SSW,200,11.0,25.0,60,0.00,,,0.00,Wunderground v.1.15,2013-02-18 17:12:00,
2013-02-18 12:18:00,33.9,21.1,29.97,SW,218,11.0,25.0,59,0.00,,,0.00,Wunderground v.1.15,2013-02-18 17:18:00,
2013-02-18 12:23:00,34.0,21.6,29.97,SSW,196,10.0,12.0,60,0.00,,,0.00,Wunderground v.1.15,2013-02-18 17:23:00,
2013-02-18 12:29:00,34.0,21.6,29.97,SSW,209,10.0,10.0,60,0.00,,,0.00,Wunderground v.1.15,2013-02-18 17:29:00,
2013-02-18 12:34:00,33.9,21.9,29.97,SSW,201,12.0,21.0,61,0.00,,,0.00,Wunderground v.1.15,2013-02-18 17:34:00,
2013-02-18 12:39:00,34.2,22.1,29.96,South,181,11.0,14.0,61,0.00,,,0.00,Wunderground v.1.15,2013-02-18 17:39:00,
2013-02-18 12:45:00,34.4,22.3,29.96,South,177,10.0,17.0,61,0.00,,,0.00,Wunderground v.1.15,2013-02-18 17:45:00,
2013-02-18 12:50:00,34.4,22.3,29.95,SSW,205,11.0,15.0,61,0.00,,,0.00,Wunderground v.1.15,2013-02-18 17:50:00,
2013-02-18 12:56:00,34.5,22.4,29.95,SSW,213,10.0,20.0,61,0.00,,,0.00,Wunderground v.1.15,2013-02-18 17:56:00,
2013-02-18 13:02:00,34.6,22.5,29.95,WSW,237,9.0,12.0,61,0.00,,,0.00,Wunderground v.1.15,2013-02-18 18:02:00,
2013-02-18 13:07:00,34.8,22.3,29.95,SSW,207,9.0,14.0,60,0.00,,,0.00,Wunderground v.1.15,2013-02-18 18:07:00,
2013-02-18 13:12:00,34.6,22.5,29.94,South,188,10.0,15.0,61,0.00,,,0.00,Wunderground v.1.15,2013-02-18 18:12:00,
2013-02-18 13:18:00,34.6,22.5,29.93,SSW,202,11.0,11.0,61,0.00,,,0.00,Wunderground v.1.15,2013-02-18 18:18:00,
2013-02-18 13:24:00,34.5,22.4,29.93,SSW,205,11.0,15.0,61,0.00,,,0.00,Wunderground v.1.15,2013-02-18 18:24:00,
2013-02-18 13:30:00,34.4,22.3,29.93,SSE,167,10.0,14.0,61,0.00,,,0.00,Wunderground v.1.15,2013-02-18 18:30:00,
2013-02-18 13:35:00,34.6,22.5,29.92,SSW,211,11.0,15.0,61,0.00,,,0.00,Wunderground v.1.15,2013-02-18 18:35:00,
2013-02-18 13:41:00,34.8,22.7,29.92,SSW,202,11.0,14.0,61,0.00,,,0.00,Wunderground v.1.15,2013-02-18 18:41:00,
2013-02-18 13:47:00,34.8,23.1,29.92,SW,214,11.0,14.0,62,0.00,,,0.00,Wunderground v.1.15,2013-02-18 18:47:00,
2013-02-18 13:53:00,35.1,22.6,29.92,South,182,10.0,13.0,60,0.00,,,0.00,Wunderground v.1.15,2013-02-18 18:53:00,
2013-02-18 13:58:00,35.3,23.2,29.91,South,187,8.0,12.0,61,0.00,,,0.00,Wunderground v.1.15,2013-02-18 18:58:00,
2013-02-18 14:03:00,35.3,23.2,29.91,SW,215,10.0,13.0,61,0.00,,,0.00,Wunderground v.1.15,2013-02-18 19:03:00,
2013-02-18 14:09:00,35.7,23.6,29.91,South,190,10.0,10.0,61,0.00,,,0.00,Wunderground v.1.15,2013-02-18 19:09:00,
2013-02-18 14:14:00,36.1,23.9,29.90,SSW,208,9.0,14.0,61,0.00,,,0.00,Wunderground v.1.15,2013-02-18 19:14:00,
2013-02-18 14:20:00,36.5,24.3,29.90,SSW,207,9.0,14.0,61,0.00,,,0.00,Wunderground v.1.15,2013-02-18 19:20:00,
2013-02-18 14:25:00,36.7,23.7,29.90,South,171,10.0,16.0,59,0.00,,,0.00,Wunderground v.1.15,2013-02-18 19:25:00,
2013-02-18 14:32:00,36.7,24.5,29.89,SSW,206,11.0,13.0,61,0.00,,,0.00,Wunderground v.1.15,2013-02-18 19:32:00,
2013-02-18 14:37:00,36.8,24.2,29.89,South,182,10.0,16.0,60,0.00,,,0.00,Wunderground v.1.15,2013-02-18 19:37:00,
2013-02-18 14:43:00,37.0,24.4,29.89,SW,222,10.0,12.0,60,0.00,,,0.00,Wunderground v.1.15,2013-02-18 19:43:00,
2013-02-18 14:48:00,37.2,24.6,29.89,SSW,197,9.0,10.0,60,0.00,,,0.00,Wunderground v.1.15,2013-02-18 19:48:00,
2013-02-18 14:54:00,37.6,25.0,29.89,South,183,8.0,18.0,60,0.00,,,0.00,Wunderground v.1.15,2013-02-18 19:54:00,
2013-02-18 14:59:00,37.7,25.1,29.88,SSW,196,8.0,8.0,60,0.00,,,0.00,Wunderground v.1.15,2013-02-18 19:59:00,
2013-02-18 15:04:00,37.9,25.2,29.88,SSE,163,9.0,13.0,60,0.00,,,0.00,Wunderground v.1.15,2013-02-18 20:04:00,
2013-02-18 15:09:00,38.1,25.4,29.87,South,187,8.0,11.0,60,0.00,,,0.00,Wunderground v.1.15,2013-02-18 20:09:00,
2013-02-18 15:14:00,38.3,25.6,29.87,SSW,194,8.0,15.0,60,0.00,,,0.00,Wunderground v.1.15,2013-02-18 20:14:00,
2013-02-18 15:20:00,38.5,25.8,29.86,SSE,163,8.0,10.0,60,0.00,,,0.00,Wunderground v.1.15,2013-02-18 20:20:00,
2013-02-18 15:26:00,38.6,25.9,29.85,SSW,212,8.0,16.0,60,0.00,,,0.00,Wunderground v.1.15,2013-02-18 20:26:00,
2013-02-18 15:32:00,38.7,26.0,29.85,South,180,9.0,14.0,60,0.00,,,0.00,Wunderground v.1.15,2013-02-18 20:32:00,
2013-02-18 15:38:00,38.8,26.5,29.84,SSW,198,10.0,10.0,61,0.00,,,0.00,Wunderground v.1.15,2013-02-18 20:38:00,
2013-02-18 15:44:00,38.9,26.6,29.83,South,188,10.0,12.0,61,0.00,,,0.00,Wunderground v.1.15,2013-02-18 20:44:00,
2013-02-18 15:49:00,39.0,26.7,29.83,SSE,168,11.0,11.0,61,0.00,,,0.00,Wunderground v.1.15,2013-02-18 20:49:00,